Starlink 5536

operational
NORAD ID: 57062 Int'l Des: 2023-088 Owner: SPXS Country: US Constellation: starlink
LEOCIRCULAR

About Starlink 5536

Description loading...

Live Position

Loading 3D Globe...

Upcoming Passes

Altitude History

Altitude vs Time

uPlot chart will show altitude changes over time

Two-Line Element Set

1 57062U 23088Q 25259.85521313 -.00000094 00000-0 81269-5 0 9997
2 57062 43.0043 318.7495 0001324 265.5271 94.5420 15.02535763124379
Epoch: Sep 16, 2025 • Age: 25 hours

Current Status

Altitude 569.5 km
Velocity 7.58 km/s
Sub-Earth Point -38.04°S, 130.53°W
Launch Date Jun 22, 2023
Age 2.2 years
Type internet

Technical Details

Classification Payload
Mass 305.00 kg
Dry Mass 290.00 kg
Total Mass 305.00 kg
Length 0.20 m
Diameter 2.80 m
Span 9.00 m
Shape Box + pan
Manufacturer SPXS
Bus Type Starlink
Phase Status In Orbit
Owner/State SPXS/US

Large Constellations

Loading constellations...